sat.trackr.live / text

‹ back to catalog

COSMOS 2504

NORAD 40555 · 2015-020D

PAYLOAD ACTIVE UNKNOWN

§ Identity

Operator
Country
CIS
Launch date
2015-03-31
Launch site
PLMSC
Launch vehicle
Mass (kg)
RCS (m²)
0.24

External: N2YO · Heavens-Above · Gunter

§ Orbital elements

Epoch: 2026-05-25T04:24:10.491264Z

Period
105.78 min
Inclination
82.5176°
Eccentricity
0.0607492
Mean motion
13.61376242 rev/d
Perigee alt
580.6 km
Apogee alt
1,480.8 km
Semi-major
7,408.8 km
B*
6.2170e-5
RAAN
249.0744°
Arg perigee
336.9689°
Mean anomaly
20.5232°
Rev number
54,706

§ Raw data

COSMOS 25041 40555U 15020D   26145.18345476  .00000180  00000+0  62170-4 0  99912 40555  82.5176 249.0744 0607492 336.9689  20.5232 13.61376242547063

JSON: /api/v1/satellites/40555 · /tle

For live sub-satellite position, see the globe view (requires WebGL).

§ Visibility from observer

Set your observer location to see the next 7 days of passes ≥ 10°. The values pass through the URL so the page stays shareable.

No JS? Fill the form by hand. The geolocation button needs JavaScript.